Location: Fort Wayne
(41.1310°N, 85.1290°W)
Time: 07:37:32
(UTC-04:00)

Oscar 19 - Visible Passes

Search period start: 21 April 2015 00:00
Search period end: 01 May 2015 00:00
Orbit: 775 x 790 km, 98.5° (Epoch: 21 April)

Date Brightness Start Highest point End Pass type
(mag) Time Alt. Az. Time Alt. Az. Time Alt. Az.
21 Apr 11.3 03:26:03 10° NNE 03:29:58 52° N 03:29:58 52° N visible
21 Apr 12.8 05:08:20 10° NW 05:09:53 11° WNW 05:10:32 11° WNW visible
22 Apr 11.9 02:54:28 10° NNE 02:57:59 38° NE 02:57:59 38° NE visible
22 Apr 12.2 04:34:41 10° NNW 04:38:33 21° WNW 04:38:33 21° WNW visible
23 Apr 12.6 02:23:22 10° NE 02:26:00 22° ENE 02:26:00 22° ENE visible
23 Apr 11.5 04:02:17 10° N 04:06:34 37° NW 04:06:34 37° NW visible
24 Apr 13.2 01:53:21 10° ENE 01:54:01 11° ENE 01:54:01 11° ENE visible
24 Apr 11.1 03:30:20 10° N 03:34:35 58° N 03:34:35 58° N visible
25 Apr 11.6 02:58:42 10° NNE 03:02:36 45° NE 03:02:36 45° NE visible
25 Apr 12.3 04:39:07 10° NNW 04:42:48 19° WNW 04:43:10 19° WNW visible
26 Apr 12.4 02:27:31 10° NE 02:30:37 25° ENE 02:30:37 25° ENE visible
26 Apr 11.5 04:06:38 10° N 04:11:11 35° WNW 04:11:11 35° WNW visible
27 Apr 13.1 01:57:14 10° ENE 01:58:37 13° ENE 01:58:37 13° ENE visible
27 Apr 10.9 03:34:37 10° N 03:39:11 62° NNW 03:39:11 62° NNW visible
28 Apr 11.3 03:02:57 10° NNE 03:07:12 52° ENE 03:07:12 52° ENE visible
28 Apr 12.3 04:43:33 10° NNW 04:47:01 18° WNW 04:47:46 17° WNW visible
29 Apr 12.2 02:31:41 10° NE 02:35:12 28° ENE 02:35:12 28° ENE visible
29 Apr 11.6 04:10:58 10° N 04:15:36 32° WNW 04:15:46 32° WNW visible
30 Apr 13.0 02:01:12 10° NE 02:03:12 15° ENE 02:03:12 15° ENE visible
30 Apr 10.8 03:38:54 10° N 03:43:46 61° NW 03:43:46 61° NW visible
